| time (UTC) | temp F | wind direction | speed knots | gust knots | rain 1hr in | rain 24hr in | rain mn in | humidity % | barometer mb |
| 20260504050334 | 51 | 302 | 0.0 | 0.0 | 0.00 | 0.26 | 0.00 | 80 | 1010.7 |
| 20260504045335 | 51 | 302 | 0.0 | 0.0 | 0.00 | 0.26 | 0.00 | 80 | 1010.6 |
| 20260504044334 | 51 | 302 | 0.0 | 0.0 | 0.00 | 0.26 | 0.00 | 81 | 1010.6 |
| 20260504043334 | 50 | 304 | 0.0 | 0.0 | 0.00 | 0.26 | 0.00 | 82 | 1010.7 |
| 20260504042334 | 49 | 304 | 0.0 | 0.9 | 0.00 | 0.26 | 0.00 | 81 | 1010.6 |
| 20260504041334 | 51 | 304 | 0.0 | 0.0 | 0.00 | 0.26 | 0.00 | 81 | 1010.6 |
| 20260504040333 | 50 | 302 | 0.0 | 0.0 | 0.00 | 0.26 | 0.00 | 83 | 1010.8 |
| 20260504035335 | 49 | 302 | 0.0 | 0.0 | 0.00 | 0.26 | 0.00 | 82 | 1011.0 |
| 20260504034335 | 50 | 304 | 0.0 | 0.0 | 0.00 | 0.26 | 0.00 | 81 | 1010.9 |
| 20260504033334 | 50 | 304 | 0.0 | 0.0 | 0.00 | 0.26 | 0.00 | 81 | 1011.0 |
| 20260504032334 | 51 | 302 | 0.0 | 0.0 | 0.00 | 0.26 | 0.00 | 80 | 1011.1 |
| 20260504031334 | 52 | 304 | 0.0 | 0.0 | 0.00 | 0.26 | 0.00 | 78 | 1011.0 |
| 20260504030334 | 51 | 302 | 0.0 | 0.0 | 0.00 | 0.26 | 0.00 | 78 | 1011.0 |
| 20260504025334 | 52 | 304 | 0.0 | 0.0 | 0.00 | 0.26 | 0.00 | 79 | 1011.0 |
| 20260504024333 | 52 | 302 | 0.0 | 0.0 | 0.00 | 0.22 | 0.00 | 78 | 1011.0 |
| 20260504023335 | 52 | 302 | 0.0 | 0.0 | 0.00 | 0.26 | 0.00 | 79 | 1011.3 |
| 20260504022335 | 52 | 304 | 0.0 | 0.0 | 0.00 | 0.26 | 0.00 | 78 | 1011.3 |
| 20260504021335 | 51 | 304 | 0.0 | 0.0 | 0.00 | 0.26 | 0.00 | 78 | 1011.3 |
| 20260504020334 | 52 | 302 | 0.0 | 0.0 | 0.00 | 0.26 | 0.00 | 77 | 1011.1 |
| 20260504015334 | 52 | 304 | 0.0 | 0.0 | 0.00 | 0.26 | 0.00 | 78 | 1011.1 |
| 20260504014334 | 52 | 304 | 0.0 | 0.0 | 0.00 | 0.26 | 0.00 | 78 | 1011.3 |
| 20260504013335 | 52 | 304 | 0.0 | 0.0 | 0.00 | 0.26 | 0.00 | 78 | 1011.3 |
| 20260504012333 | 53 | 304 | 0.0 | 0.0 | 0.00 | 0.26 | 0.00 | 78 | 1011.4 |
| 20260504011333 | 53 | 302 | 0.0 | 0.0 | 0.00 | 0.26 | 0.00 | 79 | 1011.5 |
| 20260504010333 | 52 | 304 | 0.0 | 0.0 | 0.00 | 0.26 | 0.00 | 77 | 1011.5 |
| 20260504005334 | 53 | 302 | 0.0 | 0.0 | 0.00 | 0.26 | 0.00 | 79 | 1011.6 |
| 20260504004334 | 53 | 304 | 0.0 | 0.0 | 0.00 | 0.26 | 0.00 | 78 | 1011.7 |
| 20260504003334 | 53 | 302 | 0.0 | 0.0 | 0.00 | 0.26 | 0.00 | 78 | 1011.6 |
| 20260504002333 | 53 | 302 | 0.0 | 0.0 | 0.00 | 0.26 | 0.00 | 77 | 1011.7 |
| 20260504001107 | 52 | 304 | 0.0 | 0.0 | 0.00 | 0.26 | 0.00 | 78 | 1011.8 |
| 20260504000107 | 53 | 304 | 0.0 | 0.0 | 0.00 | 0.26 | 0.00 | 78 | 1011.8 |
| 20260503235106 | 53 | 304 | 0.0 | 0.0 | 0.00 | 0.26 | 0.00 | 77 | 1011.8 |
| 20260503234108 | 53 | 304 | 0.0 | 0.0 | 0.00 | 0.26 | 0.00 | 78 | 1012.0 |
| 20260503233108 | 53 | 304 | 0.0 | 0.0 | 0.00 | 0.26 | 0.00 | 78 | 1011.9 |
| 20260503232108 | 53 | 304 | 0.0 | 0.0 | 0.00 | 0.26 | 0.00 | 78 | 1011.9 |
| 20260503231107 | 53 | 302 | 0.0 | 0.0 | 0.00 | 0.26 | 0.00 | 79 | 1012.0 |
| 20260503230107 | 53 | 302 | 0.0 | 0.9 | 0.00 | 0.26 | 0.00 | 79 | 1012.0 |
| 20260503225106 | 53 | 304 | 0.9 | 1.7 | 0.00 | 0.26 | 0.00 | 78 | 1011.8 |
| 20260503224108 | 53 | 304 | 0.9 | 1.7 | 0.00 | 0.26 | 0.00 | 77 | 1012.0 |
| 20260503223108 | 54 | 304 | 0.9 | 1.7 | 0.00 | 0.26 | 0.00 | 76 | 1012.0 |
| 20260503222108 | 54 | 302 | 0.0 | 0.0 | 0.00 | 0.26 | 0.00 | 76 | 1012.0 |
| 20260503221107 | 54 | 304 | 0.0 | 0.0 | 0.00 | 0.26 | 0.00 | 79 | 1012.1 |
| 20260503220107 | 52 | 285 | 0.0 | 0.0 | 0.00 | 0.26 | 0.26 | 79 | 1012.2 |
| 20260503210108 | 52 | 223 | 0.9 | 1.7 | 0.00 | 0.26 | 0.26 | 80 | 1012.3 |
| 20260503205108 | 52 | 223 | 0.9 | 1.7 | 0.00 | 0.26 | 0.26 | 80 | 1012.3 |
| 20260503204108 | 53 | 222 | 0.0 | 0.0 | 0.00 | 0.26 | 0.26 | 78 | 1012.1 |
| 20260503203107 | 54 | 222 | 0.0 | 0.0 | 0.02 | 0.26 | 0.26 | 73 | 1011.8 |
| 20260503202107 | 55 | 222 | 0.0 | 0.0 | 0.02 | 0.26 | 0.26 | 73 | 1011.6 |
| 20260503201107 | 55 | 223 | 0.0 | 0.0 | 0.02 | 0.26 | 0.26 | 74 | 1011.5 |
| 20260503200106 | 54 | 223 | 0.0 | 0.0 | 0.02 | 0.26 | 0.26 | 73 | 1011.4 |
| 20260503195107 | 54 | 223 | 0.0 | 0.0 | 0.02 | 0.26 | 0.26 | 73 | 1011.4 |
| 20260503194108 | 55 | 224 | 0.0 | 0.0 | 0.02 | 0.26 | 0.26 | 72 | 1011.2 |
| 20260503193107 | 54 | 223 | 0.9 | 2.6 | 0.00 | 0.24 | 0.24 | 74 | 1011.5 |
| 20260503192107 | 55 | 222 | 0.0 | 0.0 | 0.00 | 0.24 | 0.24 | 73 | 1011.3 |
| 20260503191107 | 55 | 221 | 0.0 | 0.0 | 0.00 | 0.24 | 0.24 | 70 | 1011.1 |
| 20260503190108 | 55 | 221 | 0.0 | 0.0 | 0.00 | 0.24 | 0.24 | 71 | 1010.8 |
| 20260503185108 | 55 | 222 | 0.0 | 0.0 | 0.00 | 0.24 | 0.24 | 71 | 1010.6 |
| 20260503184108 | 56 | 222 | 0.0 | 0.0 | 0.00 | 0.24 | 0.24 | 70 | 1010.7 |
| 20260503183107 | 57 | 222 | 0.0 | 0.0 | 0.00 | 0.24 | 0.24 | 69 | 1010.6 |
| 20260503182107 | 56 | 221 | 0.0 | 0.0 | 0.00 | 0.26 | 0.24 | 69 | 1010.7 |
| 20260503181107 | 56 | 222 | 0.0 | 0.0 | 0.00 | 0.26 | 0.24 | 69 | 1010.7 |
| 20260503180108 | 57 | 221 | 0.0 | 0.0 | 0.00 | 0.26 | 0.24 | 68 | 1010.7 |
| 20260503175108 | 58 | 222 | 0.0 | 0.0 | 0.00 | 0.26 | 0.24 | 65 | 1010.5 |
| 20260503174108 | 57 | 222 | 0.0 | 0.0 | 0.00 | 0.26 | 0.24 | 65 | 1010.5 |
| 20260503173108 | 59 | 221 | 0.0 | 0.0 | 0.00 | 0.26 | 0.24 | 63 | 1010.2 |
| 20260503172106 | 60 | 221 | 0.0 | 0.0 | 0.00 | 0.26 | 0.24 | 64 | 1010.2 |
| 20260503171106 | 60 | 254 | 0.0 | 0.0 | 0.00 | 0.26 | 0.24 | 64 | 1010.1 |
| 20260503170107 | 60 | 254 | 0.0 | 0.9 | 0.00 | 0.26 | 0.24 | 63 | 1010.1 |
| 20260503160106 | 56 | 84 | 0.9 | 1.7 | 0.08 | 0.28 | 0.24 | 76 | 1010.9 |
| 20260503150610 | 58 | 228 | 0.0 | 0.0 | 0.02 | 0.33 | 0.16 | 75 | 1010.7 |
| 20260503130609 | 69 | 216 | 0.0 | 0.0 | 0.00 | 0.33 | 0.14 | 52 | 1011.3 |
| 20260503110609 | 56 | 92 | 0.0 | 0.0 | 0.06 | 0.49 | 0.14 | 81 | 1013.1 |
| 20260503081610 | 57 | 224 | 0.0 | 1.7 | 0.00 | 0.67 | 0.00 | 75 | 1013.1 |
| 20260503080610 | 56 | 222 | 0.0 | 1.7 | 0.00 | 0.67 | 0.00 | 78 | 1013.1 |
| 20260503072609 | 56 | 225 | 0.0 | 0.0 | 0.00 | 0.67 | 0.00 | 82 | 1013.1 |
| 20260503071610 | 54 | 226 | 0.0 | 0.0 | 0.00 | 0.67 | 0.00 | 84 | 1013.4 |
| 20260503070610 | 53 | 225 | 0.0 | 1.7 | 0.00 | 0.67 | 0.00 | 86 | 1013.9 |
| 20260503054610 | 54 | 125 | 0.0 | 0.0 | 0.00 | 0.67 | 0.00 | 80 | 1013.1 |
| 20260503053609 | 53 | 140 | 0.0 | 0.0 | 0.00 | 0.67 | 0.00 | 80 | 1013.1 |
| 20260503052609 | 54 | 160 | 0.0 | 0.0 | 0.00 | 0.67 | 0.00 | 79 | 1013.0 |